Orbital Elements at Epoch 2459200.5 (2020-Dec-17.0) TDB
Reference: JPL 23 (heliocentric ecliptic J2000)
Element | Value | Uncertainty (1-sigma) | Units |
e | .1021162329544338 | 3.0306e-08 | |
a | 2.326059902954194 | 1.0804e-08 | au |
q | 2.088531428038155 | 6.9188e-08 | au |
i | 4.68343581753333 | 3.2467e-06 | deg |
node | 88.56966642124313 | 4.8844e-05 | deg |
peri | 339.8913056927686 | 5.3122e-05 | deg |
M | 187.2015251822455 | 2.197e-05 | deg |
tp | 2459822.466757473491 (2022-Aug-30.96675747) | 8.107e-05 | TDB |
period | 1295.775514955244 3.55 | 9.0282e-06 2.472e-08 | d yr |
n | .2778259010492527 | 1.9357e-09 | deg/d |
Q | 2.563588377870232 | 1.1908e-08 | au |
|
| | Orbit Determination Parameters
Additional Information
|